Location: Ash Shall?l al Awwal
(24.0167°N, 32.8667°E)
Time: 03:38:43
(UTC+00:00)

DMSP B5D2-2 - Pass Details

Date: 02 March 2021
Orbit: 789 x 807 km, 98.3° (Epoch: 12 April)

Event Time Altitude Azimuth Distance (km) Brightness Sun altitude
Rises 16:59:40 0° 13° (NNE) 3,290 7.1 -16.3°
Reaches altitude 10° 17:02:00 10° 15° (NNE) 2,356 6.4 -16.8°
Maximum altitude 17:07:12 79° 102° (ESE) 805 3.9 -18.0°
Drops below altitude 10° 17:12:22 10° 189° (S) 2,342 6.6 -19.2°
Sets 17:14:41 0° 190° (S) 3,268 7.4 -19.7°
